Project,Study,Ord_Occ,Event_Num,Cast_ID,Date_Time_UTC,Date_Time_PST,Lat_Dec,Lon_Dec,Sta_ID,Line,Sta,Depth,Pressure,PrQ,Temp1,Temp1Q,Temp2,Temp2Q,TempAve,Salt1,Salt1Q,Salt1_Corr,Salt2,Salt2Q,Salt2_Corr,SaltAve_Corr,Ox1,Ox1Q,Ox1_CruiseCorr,Ox1_StaCorr,Ox2,Ox2Q,Ox2_CruiseCorr,Ox2_StaCorr,OxAve_StaCorr,Ox1uM,Ox1uM_CruiseCorr,Ox1uM_StaCorr,Ox2uM,Ox2uM_CruiseCorr,Ox2uM_StaCorr,OxAveuM_StaCorr,FluorV,FluorQ,EstChl_CruiseCorr,EstChl_StaCorr,ISUSV,ISUSQ,EstNO3_CruiseCorr,EstNO3_StaCorr,SigThetaTS1,SigThetaTS1Q,SigThetaTS2,SigThetaTS2Q,BAT,XMiss,TransQ,pH,pHQ,SPAR,SPARQ,PAR,PARQ,PoT1,PoT2,DynHt,SVA,OxSat1,OxSat2,BTL_Depth,BTL_Temp,SaltB,OxB,OxBuM,Chl-a,Phaeo,NO3,NO2,NH4,PO4,SIL
CalCOFI,2101RL,020,,2101_020d,20-Jan-2021 15:39:52,20-Jan-2021 07:39:52,31.09065,-122.66235,090.0 100.0,090.0,100.0,5.000,5.035,,14.9993,,14.9995,,14.9994,33.0733,,33.0791,33.0691,,33.0711,33.0751,5.5486,,5.8071,5.7914,5.5056,,5.8455,5.7884,5.7899,241.879,253.4591,79.7176,240.003,269.4256,79.9627,79.8402,0.0584,,0.2303,0.2670, ,, , ,24.4872,,24.4839,,0.7423,83.0626,,,,4.1056E+02,,5.4459E+00,,14.9985,14.9988,0.0057,343.753,96.323,95.574,4,,33.0724,, ,0.219,0.101,,,,,
CalCOFI,2101RL,020,,2101_020d,20-Jan-2021 15:39:58,20-Jan-2021 07:39:58,31.09066,-122.66236,090.0 100.0,090.0,100.0,6.000,6.042,,14.9994,,14.9995,,14.9995,33.0734,,33.0792,33.0692,,33.0712,33.0752,5.5435,,5.8017,5.7861,5.4992,,5.8387,5.7816,5.7839,241.656,253.2257,79.6549,239.727,269.1777,79.8833,79.7691,0.0576,,0.2238,0.2614, ,, , ,24.4873,,24.4840,,0.7422,83.0658,,,,4.1784E+02,,5.1535E+00,,14.9985,14.9986,0.0111,343.774,96.234,95.464,,,,,,,,,,,,
CalCOFI,2101RL,020,,2101_020d,20-Jan-2021 15:40:00,20-Jan-2021 07:40:00,31.09068,-122.66236,090.0 100.0,090.0,100.0,7.000,7.049,,14.9995,,15.0000,,14.9998,33.0736,,33.0794,33.0692,,33.0712,33.0753,5.5442,,5.8025,5.7868,5.4924,,5.8315,5.7745,5.7807,241.685,253.2561,79.6631,239.427,269.2099,79.7969,79.7300,0.0576,,0.2238,0.2614, ,, , ,24.4874,,24.4839,,0.7423,83.0640,,,,4.9459E+02,,4.6206E+00,,14.9984,14.9990,0.0146,343.793,96.246,95.345,,,,,,,,,,,,
CalCOFI,2101RL,020,,2101_020d,20-Jan-2021 15:40:01,20-Jan-2021 07:40:01,31.09068,-122.66236,090.0 100.0,090.0,100.0,8.000,8.056,,15.0003,,15.0004,,15.0004,33.0737,,33.0795,33.0693,,33.0713,33.0754,5.5416,,5.7997,5.7841,5.4911,,5.8301,5.7731,5.7786,241.572,253.1378,79.6313,239.373,269.0843,79.7814,79.7064,0.0567,,0.2164,0.2548, ,, , ,24.4874,,24.4840,,0.7422,83.0658,,,,4.8955E+02,,3.8922E+00,,14.9992,14.9992,0.0181,343.826,96.203,95.324,,,,,,,,,,,,
CalCOFI,2101RL,020,,2101_020d,20-Jan-2021 15:40:01,20-Jan-2021 07:40:01,31.09068,-122.66236,090.0 100.0,090.0,100.0,9.000,9.063,,15.0009,,15.0010,,15.0010,33.0737,,33.0795,33.0693,,33.0713,33.0754,5.5316,,5.7893,5.7738,5.4901,,5.8290,5.7721,5.7730,241.137,252.6824,79.5091,239.328,268.6005,79.7684,79.6388,0.0580,,0.2271,0.2642, ,, , ,24.4873,,24.4839,,0.7428,83.0527,,,,4.8598E+02,,3.6425E+00,,14.9995,14.9997,0.0216,343.867,96.031,95.308,,,,,,,,,,,,
CalCOFI,2101RL,020,,2101_020d,20-Jan-2021 15:40:03,20-Jan-2021 07:40:03,31.09070,-122.66236,090.0 100.0,090.0,100.0,10.000,10.070,,15.0009,,15.0011,,15.0010,33.0735,,33.0793,33.0692,,33.0712,33.0753,5.5375,,5.7954,5.7799,5.4870,,5.8257,5.7688,5.7744,241.393,252.9504,79.5810,239.193,268.8852,79.7296,79.6553,0.0593,,0.2377,0.2732, ,, , ,24.4872,,24.4838,,0.7428,83.0517,,,,4.8334E+02,,3.2974E+00,,14.9994,14.9996,0.0250,343.908,96.133,95.254,,,,,,,,,,,,
CalCOFI,2101RL,020,,2101_020d,20-Jan-2021 15:40:04,20-Jan-2021 07:40:04,31.09070,-122.66236,090.0 100.0,090.0,100.0,11.000,11.077,,15.0012,,15.0014,,15.0013,33.0734,,33.0792,33.0692,,33.0712,33.0752,5.5365,,5.7944,5.7788,5.4896,,5.8285,5.7715,5.7752,241.349,252.9043,79.5687,239.307,268.8363,79.7624,79.6656,0.0593,,0.2377,0.2732, ,, , ,24.4871,,24.4838,,0.7429,83.0498,,,,4.2730E+02,,2.9979E+00,,14.9996,14.9998,0.0285,343.945,96.116,95.300,11,,33.0700,5.833,254.53,0.231,0.087,,,,,
CalCOFI,2101RL,020,,2101_020d,20-Jan-2021 15:40:06,20-Jan-2021 07:40:06,31.09072,-122.66234,090.0 100.0,090.0,100.0,12.000,12.084,,15.0012,,15.0016,,15.0014,33.0734,,33.0792,33.0692,,33.0712,33.0752,5.5236,,5.7809,5.7654,5.4893,,5.8282,5.7712,5.7683,240.789,252.3181,79.4113,239.291,268.2135,79.7578,79.5846,0.0580,,0.2271,0.2642, ,, , ,24.4871,,24.4837,,0.7422,83.0648,,,,3.2061E+02,,3.0212E+00,,14.9994,14.9998,0.0320,343.972,95.893,95.294,,,,,,,,,,,,
CalCOFI,2101RL,020,,2101_020d,20-Jan-2021 15:40:07,20-Jan-2021 07:40:07,31.09072,-122.66234,090.0 100.0,090.0,100.0,13.000,13.091,,15.0010,,15.0014,,15.0012,33.0735,,33.0793,33.0692,,33.0712,33.0753,5.5350,,5.7928,5.7773,5.4910,,5.8300,5.7730,5.7752,241.286,252.8384,79.5510,239.370,268.7662,79.7805,79.6658,0.0585,,0.2312,0.2677, ,, , ,24.4873,,24.4838,,0.7428,83.0520,,,,2.8534E+02,,2.8679E+00,,14.9990,14.9994,0.0354,343.987,96.090,95.325,,,,,,,,,,,,
CalCOFI,2101RL,020,,2101_020d,20-Jan-2021 15:40:08,20-Jan-2021 07:40:08,31.09072,-122.66234,090.0 100.0,090.0,100.0,14.000,14.098,,15.0014,,15.0015,,15.0015,33.0737,,33.0795,33.0695,,33.0715,33.0755,5.5388,,5.7968,5.7812,5.4889,,5.8278,5.7708,5.7760,241.448,253.0080,79.5965,239.277,268.9464,79.7537,79.6751,0.0558,,0.2090,0.2481, ,, , ,24.4873,,24.4841,,0.7424,83.0604,,,,3.4192E+02,,2.5737E+00,,14.9993,14.9994,0.0389,344.012,96.156,95.288,,,,,,,,,,,,
CalCOFI,2101RL,020,,2101_020d,20-Jan-2021 15:40:08,20-Jan-2021 07:40:08,31.09073,-122.66233,090.0 100.0,090.0,100.0,15.000,15.105,,15.0024,,15.0027,,15.0026,33.0737,,33.0795,33.0695,,33.0715,33.0755,5.5481,,5.8065,5.7909,5.4850,,5.8236,5.7667,5.7788,241.855,253.4340,79.7109,239.106,269.3990,79.7045,79.7077,0.0584,,0.2303,0.2670, ,, , ,24.4872,,24.4838,,0.7428,83.0521,,,,4.5676E+02,,2.4714E+00,,15.0001,15.0005,0.0423,344.054,96.320,95.223,,,,,,,,,,,,
CalCOFI,2101RL,020,,2101_020d,20-Jan-2021 15:40:09,20-Jan-2021 07:40:09,31.09074,-122.66232,090.0 100.0,090.0,100.0,16.000,16.112,,15.0025,,15.0028,,15.0027,33.0737,,33.0795,33.0694,,33.0714,33.0755,5.5571,,5.8160,5.8003,5.4888,,5.8277,5.7707,5.7855,242.250,253.8475,79.8218,239.272,269.8382,79.7523,79.7871,0.0581,,0.2279,0.2649, ,, , ,24.4872,,24.4838,,0.7426,83.0565,,,,5.6115E+02,,2.4841E+00,,15.0001,15.0004,0.0458,344.083,96.477,95.289,,,,,,,,,,,,
CalCOFI,2101RL,020,,2101_020d,20-Jan-2021 15:40:10,20-Jan-2021 07:40:10,31.09074,-122.66232,090.0 100.0,090.0,100.0,17.000,17.119,,15.0025,,15.0028,,15.0027,33.0737,,33.0795,33.0693,,33.0713,33.0754,5.5482,,5.8066,5.7910,5.4965,,5.8358,5.7788,5.7849,241.859,253.4382,79.7120,239.609,269.4034,79.8493,79.7807,0.0578,,0.2254,0.2628, ,, , ,24.4872,,24.4838,,0.7420,83.0696,,,,5.8714E+02,,2.4110E+00,,15.0000,15.0003,0.0493,344.115,96.322,95.423,,,,,,,,,,,,
CalCOFI,2101RL,020,,2101_020d,20-Jan-2021 15:40:11,20-Jan-2021 07:40:11,31.09074,-122.66232,090.0 100.0,090.0,100.0,18.000,18.126,,15.0010,,15.0015,,15.0013,33.0734,,33.0792,33.0691,,33.0711,33.0752,5.5408,,5.7989,5.7833,5.4895,,5.8284,5.7714,5.7774,241.540,253.1043,79.6223,239.302,269.0487,79.7609,79.6916,0.0570,,0.2189,0.2570, ,, , ,24.4873,,24.4839,,0.7424,83.0611,,,,5.6221E+02,,2.2592E+00,,14.9983,14.9988,0.0527,344.130,96.191,95.298,,,,,,,,,,,,
CalCOFI,2101RL,020,,2101_020d,20-Jan-2021 15:40:13,20-Jan-2021 07:40:13,31.09076,-122.66232,090.0 100.0,090.0,100.0,19.000,19.133,,14.9988,,14.9984,,14.9986,33.0732,,33.0790,33.0688,,33.0708,33.0749,5.5356,,5.7935,5.7779,5.4826,,5.8211,5.7642,5.7711,241.310,252.8635,79.5577,239.002,268.7929,79.6746,79.6162,0.0571,,0.2197,0.2577, ,, , ,24.4877,,24.4844,,0.7416,83.0770,,,,3.3808E+02,,2.0400E+00,,14.9959,14.9956,0.0562,344.127,96.095,95.173,,,,,,,,,,,,
CalCOFI,2101RL,020,,2101_020d,20-Jan-2021 15:40:14,20-Jan-2021 07:40:14,31.09076,-122.66232,090.0 100.0,090.0,100.0,20.000,20.140,,14.9961,,14.9962,,14.9962,33.0733,,33.0791,33.0687,,33.0707,33.0749,5.5315,,5.7892,5.7736,5.4834,,5.8219,5.7650,5.7693,241.133,252.6782,79.5080,239.034,268.5961,79.6838,79.5959,0.0577,,0.2246,0.2621, ,, , ,24.4884,,24.4848,,0.7428,83.0524,,,,2.6446E+02,,1.8934E+00,,14.9931,14.9932,0.0597,344.092,96.020,95.182,,,,,,,,,,,,
CalCOFI,2101RL,020,,2101_020d,20-Jan-2021 15:40:15,20-Jan-2021 07:40:15,31.09076,-122.66233,090.0 100.0,090.0,100.0,21.000,21.147,,14.9987,,14.9992,,14.9990,33.0733,,33.0791,33.0690,,33.0710,33.0751,5.5396,,5.7976,5.7821,5.4855,,5.8241,5.7672,5.7747,241.487,253.0488,79.6074,239.126,268.9897,79.7103,79.6589,0.0569,,0.2180,0.2563, ,, , ,24.4879,,24.4845,,0.7420,83.0703,,,,2.9967E+02,,1.8441E+00,,14.9956,14.9960,0.0631,344.169,96.166,95.224,,,,,,,,,,,,
CalCOFI,2101RL,020,,2101_020d,20-Jan-2021 15:40:17,20-Jan-2021 07:40:17,31.09076,-122.66234,090.0 100.0,090.0,100.0,22.000,22.154,,15.0009,,15.0013,,15.0011,33.0734,,33.0792,33.0691,,33.0711,33.0752,5.5386,,5.7966,5.7810,5.4866,,5.8253,5.7684,5.7747,241.443,253.0027,79.5951,239.177,268.9408,79.7250,79.6601,0.0577,,0.2246,0.2621, ,, , ,24.4875,,24.4841,,0.7417,83.0751,,,,4.1500E+02,,1.8723E+00,,14.9977,14.9980,0.0666,344.236,96.153,95.248,,,,,,,,,,,,
CalCOFI,2101RL,020,,2101_020d,20-Jan-2021 15:40:20,20-Jan-2021 07:40:20,31.09076,-122.66232,090.0 100.0,090.0,100.0,23.000,23.161,,15.0022,,15.0027,,15.0025,33.0735,,33.0793,33.0691,,33.0711,33.0752,5.5449,,5.8032,5.7876,5.4960,,5.8353,5.7783,5.7830,241.715,253.2875,79.6715,239.587,269.2433,79.8430,79.7573,0.0572,,0.2205,0.2585, ,, , ,24.4873,,24.4838,,0.7421,83.0676,,,,3.2457E+02,,1.7884E+00,,14.9988,14.9993,0.0701,344.285,96.264,95.414,,,,,,,,,,,,
CalCOFI,2101RL,020,,2101_020d,20-Jan-2021 15:40:25,20-Jan-2021 07:40:25,31.09076,-122.66232,090.0 100.0,090.0,100.0,24.000,24.168,,15.0026,,15.0028,,15.0027,33.0735,,33.0793,33.0692,,33.0712,33.0753,5.5365,,5.7944,5.7788,5.4965,,5.8358,5.7788,5.7788,241.351,252.9064,79.5692,239.607,268.8385,79.8487,79.7090,0.0583,,0.2295,0.2663, ,, , ,24.4872,,24.4839,,0.7428,83.0531,,,,4.1991E+02,,1.7262E+00,,14.9990,14.9992,0.0746,344.321,96.119,95.422,,,,,,,,,,,,
CalCOFI,2101RL,020,,2101_020d,20-Jan-2021 15:40:31,20-Jan-2021 07:40:31,31.09076,-122.66230,090.0 100.0,090.0,100.0,25.000,25.175,,15.0029,,15.0031,,15.0030,33.0736,,33.0794,33.0693,,33.0713,33.0754,5.5424,,5.8006,5.7850,5.4992,,5.8387,5.7816,5.7833,241.607,253.1744,79.6412,239.724,269.1232,79.8824,79.7618,0.0575,,0.2230,0.2606, ,, , ,24.4873,,24.4840,,0.7417,83.0758,,,,4.4629E+02,,1.6825E+00,,14.9992,14.9993,0.0811,344.343,96.222,95.469,,,,,,,,,,,,
CalCOFI,2101RL,020,,2101_020d,20-Jan-2021 15:40:32,20-Jan-2021 07:40:32,31.09076,-122.66232,090.0 100.0,090.0,100.0,26.000,26.182,,15.0028,,15.0031,,15.0030,33.0735,,33.0793,33.0693,,33.0713,33.0753,5.5448,,5.8031,5.7875,5.4988,,5.8383,5.7812,5.7844,241.713,253.2854,79.6709,239.707,269.2410,79.8775,79.7742,0.0563,,0.2131,0.2518, ,, , ,24.4873,,24.4840,,0.7416,83.0782,,,,5.4897E+02,,1.6113E+00,,14.9989,14.9992,0.0846,344.372,96.264,95.463,26,,33.0741,, ,0.219,0.096,,,,,
CalCOFI,2101RL,020,,2101_020d,20-Jan-2021 15:40:37,20-Jan-2021 07:40:37,31.09076,-122.66229,090.0 100.0,090.0,100.0,27.000,27.189,,15.0026,,15.0027,,15.0027,33.0734,,33.0792,33.0693,,33.0713,33.0753,5.5327,,5.7904,5.7749,5.4860,,5.8247,5.7677,5.7713,241.183,252.7306,79.5220,239.151,268.6517,79.7175,79.6198,0.0578,,0.2254,0.2628, ,, , ,24.4873,,24.4841,,0.7418,83.0725,,,,4.8619E+02,,1.5631E+00,,14.9985,14.9987,0.0901,344.405,96.052,95.241,,,,,,,,,,,,
CalCOFI,2101RL,020,,2101_020d,20-Jan-2021 15:40:41,20-Jan-2021 07:40:41,31.09077,-122.66226,090.0 100.0,090.0,100.0,28.000,28.196,,15.0034,,15.0036,,15.0035,33.0737,,33.0795,33.0694,,33.0714,33.0755,5.5398,,5.7979,5.7823,5.4935,,5.8326,5.7756,5.7790,241.494,253.0561,79.6094,239.477,268.9975,79.8113,79.7104,0.0568,,0.2172,0.2555, ,, , ,24.4874,,24.4840,,0.7421,83.0675,,,,4.3302E+02,,1.5151E+00,,14.9993,14.9994,0.0956,344.429,96.178,95.372,,,,,,,,,,,,
CalCOFI,2101RL,020,,2101_020d,20-Jan-2021 15:40:42,20-Jan-2021 07:40:42,31.09080,-122.66226,090.0 100.0,090.0,100.0,29.000,29.203,,15.0048,,15.0048,,15.0048,33.0738,,33.0796,33.0696,,33.0716,33.0756,5.5440,,5.8023,5.7866,5.5041,,5.8439,5.7868,5.7867,241.677,253.2477,79.6608,239.939,269.2010,79.9443,79.8026,0.0550,,0.2025,0.2419, ,, , ,24.4872,,24.4840,,0.7426,83.0575,,,,5.3822E+02,,1.4545E+00,,15.0005,15.0005,0.0991,344.475,96.253,95.558,,,,,,,,,,,,
CalCOFI,2101RL,020,,2101_020d,20-Jan-2021 15:40:42,20-Jan-2021 07:40:42,31.09080,-122.66226,090.0 100.0,090.0,100.0,30.000,30.210,,15.0039,,15.0042,,15.0041,33.0736,,33.0794,33.0695,,33.0715,33.0755,5.5515,,5.8101,5.7944,5.5047,,5.8445,5.7874,5.7909,242.003,253.5889,79.7524,239.967,269.5635,79.9524,79.8524,0.0570,,0.2189,0.2570, ,, , ,24.4873,,24.4840,,0.7417,83.0752,,,,6.1009E+02,,1.4091E+00,,14.9994,14.9997,0.1025,344.494,96.381,95.568,,,,,,,,,,,,
CalCOFI,2101RL,020,,2101_020d,20-Jan-2021 15:40:47,20-Jan-2021 07:40:47,31.09081,-122.66227,090.0 100.0,090.0,100.0,31.000,31.217,,15.0041,,15.0044,,15.0043,33.0736,,33.0794,33.0694,,33.0714,33.0754,5.5328,,5.7905,5.7750,5.4984,,5.8379,5.7808,5.7779,241.187,252.7348,79.5232,239.688,268.6561,79.8721,79.6977,0.0565,,0.2148,0.2533, ,, , ,24.4873,,24.4840,,0.7417,83.0759,,,,5.5571E+02,,1.3686E+00,,14.9995,14.9998,0.1103,344.527,96.057,95.458,,,,,,,,,,,,
CalCOFI,2101RL,020,,2101_020d,20-Jan-2021 15:40:51,20-Jan-2021 07:40:51,31.09083,-122.66230,090.0 100.0,090.0,100.0,32.000,32.225,,15.0042,,15.0045,,15.0044,33.0738,,33.0796,33.0696,,33.0716,33.0756,5.5398,,5.7979,5.7823,5.4962,,5.8355,5.7785,5.7804,241.494,253.0561,79.6094,239.594,268.9975,79.8450,79.7272,0.0552,,0.2041,0.2435, ,, , ,24.4874,,24.4841,,0.7417,83.0759,,,,5.7248E+02,,1.3128E+00,,14.9994,14.9997,0.1200,344.544,96.179,95.421,,,,,,,,,,,,
CalCOFI,2101RL,020,,2101_020d,20-Jan-2021 15:40:52,20-Jan-2021 07:40:52,31.09084,-122.66232,090.0 100.0,090.0,100.0,33.000,33.232,,15.0043,,15.0045,,15.0044,33.0736,,33.0794,33.0696,,33.0716,33.0755,5.5336,,5.7914,5.7758,5.4992,,5.8387,5.7816,5.7787,241.223,252.7724,79.5333,239.724,268.6962,79.8824,79.7079,0.0560,,0.2107,0.2496, ,, , ,24.4873,,24.4841,,0.7417,83.0759,,,,6.1835E+02,,1.2771E+00,,14.9993,14.9996,0.1234,344.585,96.072,95.472,,,,,,,,,,,,
CalCOFI,2101RL,020,,2101_020d,20-Jan-2021 15:40:55,20-Jan-2021 07:40:55,31.09085,-122.66230,090.0 100.0,090.0,100.0,34.000,34.239,,15.0045,,15.0046,,15.0046,33.0737,,33.0795,33.0695,,33.0715,33.0755,5.5347,,5.7925,5.7770,5.4938,,5.8330,5.7760,5.7765,241.273,252.8248,79.5473,239.488,268.7518,79.8145,79.6809,0.0557,,0.2082,0.2473, ,, , ,24.4873,,24.4841,,0.7422,83.0645,,,,4.7893E+02,,1.2436E+00,,14.9994,14.9995,0.1305,344.611,96.092,95.378,,,,,,,,,,,,
CalCOFI,2101RL,020,,2101_020d,20-Jan-2021 15:40:59,20-Jan-2021 07:40:59,31.09086,-122.66228,090.0 100.0,090.0,100.0,35.000,35.246,,15.0044,,15.0046,,15.0045,33.0737,,33.0795,33.0696,,33.0716,33.0756,5.5192,,5.7763,5.7609,5.4893,,5.8282,5.7712,5.7661,240.598,252.1182,79.3577,239.292,268.0011,79.7581,79.5579,0.0562,,0.2123,0.2511, ,, , ,24.4874,,24.4841,,0.7420,83.0696,,,,4.4161E+02,,1.2054E+00,,14.9992,14.9994,0.1386,344.633,95.823,95.300,,,,,,,,,,,,
CalCOFI,2101RL,020,,2101_020d,20-Jan-2021 15:40:59,20-Jan-2021 07:40:59,31.09086,-122.66228,090.0 100.0,090.0,100.0,36.000,36.253,,15.0046,,15.0050,,15.0048,33.0737,,33.0795,33.0695,,33.0715,33.0755,5.5151,,5.7720,5.7566,5.4785,,5.8167,5.7599,5.7583,240.419,251.9308,79.3074,238.822,267.8021,79.6228,79.4651,0.0548,,0.2008,0.2403, ,, , ,24.4874,,24.4840,,0.7428,83.0524,,,,5.8619E+02,,1.1856E+00,,14.9992,14.9996,0.1422,344.664,95.752,95.114,,,,,,,,,,,,
CalCOFI,2101RL,020,,2101_020d,20-Jan-2021 15:41:00,20-Jan-2021 07:41:00,31.09086,-122.66228,090.0 100.0,090.0,100.0,37.000,37.260,,15.0037,,15.0036,,15.0037,33.0736,,33.0794,33.0694,,33.0714,33.0754,5.5232,,5.7805,5.7650,5.4730,,5.8109,5.7541,5.7596,240.770,252.2982,79.4060,238.584,268.1924,79.5542,79.4801,0.0547,,0.2000,0.2395, ,, , ,24.4875,,24.4843,,0.7422,83.0645,,,,6.2257E+02,,1.1645E+00,,14.9982,14.9981,0.1457,344.682,95.890,95.016,,,,,,,,,,,,
CalCOFI,2101RL,020,,2101_020d,20-Jan-2021 15:41:05,20-Jan-2021 07:41:05,31.09088,-122.66224,090.0 100.0,090.0,100.0,38.000,38.267,,15.0017,,15.0020,,15.0019,33.0735,,33.0793,33.0692,,33.0712,33.0753,5.5346,,5.7924,5.7769,5.4793,,5.8176,5.7607,5.7688,241.266,252.8174,79.5454,238.858,268.7440,79.6331,79.5893,0.0573,,0.2213,0.2592, ,, , ,24.4879,,24.4845,,0.7419,83.0713,,,,3.7274E+02,,1.1144E+00,,14.9960,14.9964,0.1505,344.673,96.084,95.123,,,,,,,,,,,,
CalCOFI,2101RL,020,,2101_020d,20-Jan-2021 15:41:07,20-Jan-2021 07:41:07,31.09088,-122.66224,090.0 100.0,090.0,100.0,39.000,39.274,,14.9998,,14.9999,,14.9999,33.0733,,33.0791,33.0692,,33.0712,33.0752,5.5229,,5.7802,5.7647,5.4792,,5.8175,5.7606,5.7627,240.756,252.2836,79.4021,238.853,268.1768,79.6317,79.5169,0.0557,,0.2082,0.2473, ,, , ,24.4882,,24.4850,,0.7423,83.0635,,,,4.7982E+02,,1.0886E+00,,14.9940,14.9941,0.1544,344.675,95.877,95.117,,,,,,,,,,,,
CalCOFI,2101RL,020,,2101_020d,20-Jan-2021 15:41:08,20-Jan-2021 07:41:08,31.09088,-122.66224,090.0 100.0,090.0,100.0,40.000,40.282,,14.9966,,14.9950,,14.9958,33.0731,,33.0789,33.0689,,33.0709,33.0749,5.5361,,5.7940,5.7784,5.4780,,5.8162,5.7593,5.7689,241.332,252.8865,79.5639,238.798,268.8174,79.6158,79.5899,0.0567,,0.2164,0.2548, ,, , ,24.4887,,24.4858,,0.7425,83.0590,,,,5.8224E+02,,1.0683E+00,,14.9907,14.9891,0.1578,344.656,96.100,95.085,,,,,,,,,,,,
CalCOFI,2101RL,020,,2101_020d,20-Jan-2021 15:41:09,20-Jan-2021 07:41:09,31.09088,-122.66224,090.0 100.0,090.0,100.0,41.000,41.289,,14.9905,,14.9895,,14.9900,33.0728,,33.0786,33.0688,,33.0708,33.0747,5.5387,,5.7967,5.7811,5.4861,,5.8248,5.7679,5.7745,241.448,253.0080,79.5965,239.154,268.9464,79.7183,79.6574,0.0569,,0.2180,0.2563, ,, , ,24.4899,,24.4870,,0.7421,83.0678,,,,5.9436E+02,,1.0542E+00,,14.9844,14.9834,0.1613,344.576,96.134,95.217,,,,,,,,,,,,
CalCOFI,2101RL,020,,2101_020d,20-Jan-2021 15:41:11,20-Jan-2021 07:41:11,31.09089,-122.66224,090.0 100.0,090.0,100.0,42.000,42.296,,14.9814,,14.9751,,14.9783,33.0724,,33.0782,33.0686,,33.0706,33.0744,5.5369,,5.7948,5.7793,5.4834,,5.8219,5.7650,5.7722,241.367,252.9232,79.5737,239.034,268.8563,79.6838,79.6288,0.0596,,0.2402,0.2752, ,, , ,24.4916,,24.4900,,0.7424,83.0598,,,,5.5631E+02,,1.0299E+00,,14.9751,14.9689,0.1648,344.441,96.085,95.142,,,,,,,,,,,,
CalCOFI,2101RL,020,,2101_020d,20-Jan-2021 15:41:15,20-Jan-2021 07:41:15,31.09090,-122.66223,090.0 100.0,090.0,100.0,43.000,43.303,,14.9410,,14.9333,,14.9372,33.0701,,33.0759,33.0654,,33.0674,33.0717,5.5187,,5.7758,5.7603,5.4848,,5.8234,5.7665,5.7634,240.571,252.0899,79.3501,239.092,267.9711,79.7005,79.5253,0.0658,,0.2910,0.3119, ,, , ,24.4986,,24.4966,,0.7429,83.0512,,,,3.1868E+02,,9.8702E-01,,14.9346,14.9268,0.1682,343.804,95.690,95.084,,,,,,,,,,,,
CalCOFI,2101RL,020,,2101_020d,20-Jan-2021 15:41:17,20-Jan-2021 07:41:17,31.09090,-122.66222,090.0 100.0,090.0,100.0,44.000,44.310,,14.8782,,14.8783,,14.8783,33.0667,,33.0725,33.0623,,33.0643,33.0684,5.5459,,5.8042,5.7886,5.5013,,5.8409,5.7838,5.7862,241.756,253.3304,79.6830,239.810,269.2889,79.9072,79.7951,0.0666,,0.2975,0.3159, ,, , ,24.5095,,24.5061,,0.7434,83.0392,,,,5.0853E+02,,9.6861E-01,,14.8716,14.8717,0.1717,342.791,96.040,95.264,,,,,,,,,,,,
CalCOFI,2101RL,020,,2101_020d,20-Jan-2021 15:41:18,20-Jan-2021 07:41:18,31.09092,-122.66222,090.0 100.0,090.0,100.0,45.000,45.317,,14.8449,,14.8460,,14.8455,33.0655,,33.0713,33.0610,,33.0630,33.0672,5.5617,,5.8208,5.8050,5.5214,,5.8623,5.8050,5.8050,242.441,254.0474,79.8755,240.685,270.0506,80.1591,80.0173,0.0667,,0.2983,0.3164, ,, , ,24.5158,,24.5121,,0.7439,83.0286,,,,5.7495E+02,,9.5363E-01,,14.8382,14.8393,0.1751,342.218,96.247,95.549,,,,,,,,,,,,
CalCOFI,2101RL,020,,2101_020d,20-Jan-2021 15:41:19,20-Jan-2021 07:41:19,31.09092,-122.66222,090.0 100.0,090.0,100.0,46.000,46.325,,14.8003,,14.7933,,14.7968,33.0619,,33.0677,33.0579,,33.0599,33.0638,5.5719,,5.8315,5.8156,5.5288,,5.8701,5.8128,5.8142,242.884,254.5112,80.0000,241.006,270.5432,80.2515,80.1258,0.0694,,0.3205,0.3288, ,, , ,24.5225,,24.5210,,0.7439,83.0288,,,,5.9888E+02,,9.4216E-01,,14.7935,14.7865,0.1786,341.598,96.336,95.575,,,,,,,,,,,,
CalCOFI,2101RL,020,,2101_020d,20-Jan-2021 15:41:21,20-Jan-2021 07:41:21,31.09092,-122.66222,090.0 100.0,090.0,100.0,47.000,47.332,,14.7800,,14.7732,,14.7766,33.0611,,33.0669,33.0567,,33.0587,33.0628,5.5431,,5.8013,5.7857,5.5022,,5.8419,5.7848,5.7853,241.630,253.1985,79.6476,239.845,269.1487,79.9172,79.7824,0.0785,,0.3950,0.3576, ,, , ,24.5263,,24.5244,,0.7453,82.9997,,,,4.8819E+02,,9.1937E-01,,14.7731,14.7662,0.1828,341.264,95.799,95.075,,,,,,,,,,,,
CalCOFI,2101RL,020,,2101_020d,20-Jan-2021 15:41:25,20-Jan-2021 07:41:25,31.09094,-122.66222,090.0 100.0,090.0,100.0,48.000,48.339,,14.5507,,14.5591,,14.5549,33.0443,,33.0501,33.0423,,33.0443,33.0472,5.5660,,5.8253,5.8095,5.5315,,5.8730,5.8156,5.8126,242.619,254.2338,79.9255,241.117,270.2485,80.2834,80.1045,0.0853,,0.4508,0.3658, ,, , ,24.5623,,24.5589,,0.7479,82.9452,,,,4.7876E+02,,8.9062E-01,,14.5437,14.5521,0.1874,337.855,95.743,95.165,,,,,,,,,,,,
CalCOFI,2101RL,020,,2101_020d,20-Jan-2021 15:41:26,20-Jan-2021 07:41:26,31.09094,-122.66222,090.0 100.0,090.0,100.0,49.000,49.346,,14.5072,,14.5065,,14.5069,33.0420,,33.0478,33.0379,,33.0399,33.0439,5.5936,,5.8542,5.8382,5.5430,,5.8852,5.8277,5.8330,243.818,255.4889,80.2624,241.615,271.5818,80.4268,80.3446,0.0866,,0.4614,0.3661, ,, , ,24.5697,,24.5667,,0.7478,82.9478,,,,5.4682E+02,,8.7401E-01,,14.5000,14.4994,0.1908,337.167,96.131,95.259,,,,,,,,,,,,
CalCOFI,2101RL,020,,2101_020d,20-Jan-2021 15:41:27,20-Jan-2021 07:41:27,31.09094,-122.66222,090.0 100.0,090.0,100.0,50.000,50.353,,14.4230,,14.4184,,14.4207,33.0334,,33.0392,33.0304,,33.0324,33.0358,5.6019,,5.8628,5.8468,5.5539,,5.8968,5.8392,5.8430,244.177,255.8647,80.3633,242.086,271.9811,80.5624,80.4629,0.0877,,0.4704,0.3661, ,, , ,24.5808,,24.5795,,0.7491,82.9218,,,,6.0887E+02,,8.5949E-01,,14.4158,14.4111,0.1942,336.130,96.106,95.272,,,,,,,,,,,,
CalCOFI,2101RL,020,,2101_020d,20-Jan-2021 15:41:30,20-Jan-2021 07:41:30,31.09094,-122.66222,090.0 100.0,090.0,100.0,51.000,51.360,,14.4672,,14.4583,,14.4628,33.0394,,33.0452,33.0339,,33.0359,33.0406,5.5653,,5.8245,5.8088,5.5190,,5.8597,5.8025,5.8057,242.583,254.1961,79.9154,240.566,270.2085,80.1248,80.0201,0.0907,,0.4950,0.3643, ,, , ,24.5762,,24.5739,,0.7556,82.7890,,,,5.0364E+02,,8.4145E-01,,14.4598,14.4509,0.1976,336.604,95.566,94.751,,,,,,,,,,,,
CalCOFI,2101RL,020,,2101_020d,20-Jan-2021 15:41:33,20-Jan-2021 07:41:33,31.09094,-122.66222,090.0 100.0,090.0,100.0,52.000,52.368,,14.2951,,14.2905,,14.2928,33.0259,,33.0317,33.0230,,33.0250,33.0284,5.5598,,5.8188,5.8031,5.5181,,5.8588,5.8015,5.8023,242.340,253.9417,79.8471,240.522,269.9383,80.1121,79.9796,0.0901,,0.4901,0.3649, ,, , ,24.6020,,24.6008,,0.7450,83.0055,,,,3.3311E+02,,8.1309E-01,,14.2876,14.2830,0.2009,334.161,95.135,94.410,,,,,,,,,,,,
CalCOFI,2101RL,020,,2101_020d,20-Jan-2021 15:41:34,20-Jan-2021 07:41:34,31.09094,-122.66221,090.0 100.0,090.0,100.0,53.000,53.375,,14.1976,,14.1933,,14.1955,33.0262,,33.0320,33.0198,,33.0218,33.0269,5.5123,,5.7691,5.7537,5.4835,,5.8220,5.7651,5.7594,240.261,251.7654,79.2630,239.011,267.6264,79.6772,79.4701,0.0919,,0.5048,0.3630, ,, , ,24.6227,,24.6186,,0.7446,83.0144,,,,5.0195E+02,,7.9689E-01,,14.1900,14.1857,0.2043,332.213,94.135,93.633,,,,,,,,,,,,
CalCOFI,2101RL,020,,2101_020d,20-Jan-2021 15:41:36,20-Jan-2021 07:41:36,31.09094,-122.66220,090.0 100.0,090.0,100.0,54.000,54.382,,14.0875,,14.0847,,14.0861,33.0162,,33.0220,33.0134,,33.0154,33.0187,5.4966,,5.7526,5.7374,5.4691,,5.8067,5.7500,5.7437,239.578,251.0505,79.0711,238.375,266.8669,79.4941,79.2826,0.0929,,0.5130,0.3617, ,, , ,24.6378,,24.6363,,0.7433,83.0408,,,,6.4450E+02,,7.8129E-01,,14.0798,14.0770,0.2077,330.786,93.653,93.176,,,,,,,,,,,,
CalCOFI,2101RL,020,,2101_020d,20-Jan-2021 15:41:37,20-Jan-2021 07:41:37,31.09094,-122.66220,090.0 100.0,090.0,100.0,55.000,55.389,,13.8751,,13.8695,,13.8723,32.9985,,33.0043,32.9967,,32.9987,33.0015,5.5994,,5.8602,5.8442,5.5605,,5.9038,5.8461,5.8452,244.048,255.7296,80.3270,242.354,271.8376,80.6395,80.4833,0.0943,,0.5245,0.3594, ,, , ,24.6681,,24.6678,,0.7412,83.0853,,,,6.4304E+02,,7.5755E-01,,13.8673,13.8617,0.2110,327.912,94.982,94.311,,,,,,,,,,,,